EW7448 Weather Reports


Display with metric or nautical units.
time (UTC)temp
F
wind
direction
speed
MPH
gust
MPH
rain 1hr
in
rain 24hr
in
rain mn
in
humidity
%
barometer
mb
20260505004547 73 354 0.0 3.0 0.00 0.00 0.00 84 1013.5
20260505003051 73 58 1.0 6.0 0.00 0.00 0.00 85 1013.3
20260505001545 73 61 1.0 6.0 0.00 0.00 0.00 85 1013.3
20260505000048 74 55 0.0 8.0 0.00 0.00 0.00 83 1013.0
20260504234545 74 154 1.0 5.0 0.00 0.00 0.00 81 1012.8
20260504233102 75 45 0.0 8.0 0.00 0.00 0.00 80 1012.8
20260504231547 75 278 0.0 8.0 0.00 0.00 0.00 78 1012.7
20260504230053 75 67 1.0 10.0 0.00 0.00 0.00 78 1012.8
20260504224542 75 49 0.0 6.0 0.00 0.00 0.00 78 1012.8
20260504223042 75 59 2.0 11.0 0.00 0.00 0.00 77 1012.9
20260504221540 75 43 3.0 12.0 0.00 0.00 0.00 77 1012.9
20260504220040 75 39 4.0 12.0 0.00 0.00 0.00 77 1012.9
20260504214539 76 46 2.0 13.0 0.00 0.00 0.00 76 1013.0
20260504213039 76 235 3.0 12.0 0.00 0.00 0.00 75 1013.0
20260504211539 76 28 5.0 13.0 0.00 0.00 0.00 75 1013.1
20260504210043 78 179 1.0 11.0 0.00 0.00 0.00 74 1013.0
20260504204540 78 133 3.0 14.0 0.00 0.00 0.00 75 1013.1
20260504203051 77 60 3.0 13.0 0.00 0.00 0.00 74 1013.3
20260504201535 77 182 3.0 10.0 0.00 0.00 0.00 76 1013.4
20260504200034 77 72 3.0 10.0 0.00 0.00 0.00 75 1013.5
20260504194535 77 69 6.0 14.0 0.00 0.00 0.00 74 1013.7
20260504193033 78 106 4.0 13.0 0.00 0.00 0.00 73 1013.8
20260504191532 78 76 3.0 17.0 0.00 0.00 0.00 74 1013.8
20260504190037 77 212 5.0 13.0 0.00 0.00 0.00 76 1014.1
20260504184534 78 34 3.0 11.0 0.00 0.00 0.00 74 1014.4
20260504183034 78 44 2.0 14.0 0.00 0.00 0.00 76 1014.5
20260504181529 78 89 5.0 14.0 0.00 0.00 0.00 75 1014.4
20260504180029 78 98 2.0 16.0 0.00 0.00 0.00 75 1014.6
20260504174528 78 356 4.0 13.0 0.00 0.00 0.00 76 1014.7
20260504173027 76 39 5.0 14.0 0.00 0.00 0.00 77 1014.7
20260504171526 77 67 6.0 17.0 0.00 0.00 0.00 75 1014.7
20260504170125 77 345 5.0 16.0 0.00 0.00 0.00 77 1014.9
20260504081536 74 53 2.0 10.0 0.00 0.23 0.00 83 1011.9
20260504050009 74 43 2.0 8.0 0.00 0.23 0.00 84 1013.9
20260504044514 73 57 2.0 7.0 0.00 0.23 0.00 84 1013.9
20260504043007 73 357 1.0 5.0 0.00 0.23 0.00 84 1013.9
20260504041504 73 39 1.0 6.0 0.00 0.23 0.00 85 1014.1
20260504040003 73 50 3.0 6.0 0.00 0.23 0.23 85 1014.1
20260504034503 73 52 1.0 7.0 0.00 0.23 0.23 85 1014.4
20260504033002 73 86 2.0 11.0 0.00 0.23 0.23 86 1014.5
20260504031502 73 63 0.0 6.0 0.00 0.23 0.23 86 1014.6
20260504030001 73 34 2.0 8.0 0.00 0.23 0.23 86 1014.6
20260504024501 73 40 2.0 10.0 0.00 0.23 0.23 86 1014.4
20260504023102 73 65 2.0 10.0 0.00 0.23 0.23 83 1014.4
20260504021559 73 41 2.0 7.0 0.00 0.23 0.23 83 1014.4
20260504020059 72 49 1.0 8.0 0.00 0.23 0.23 85 1014.3
20260504014602 72 54 1.0 6.0 0.00 0.23 0.23 87 1014.1
20260504013111 71 47 1.0 8.0 0.00 0.23 0.23 88 1014.1
20260504011558 71 65 0.0 4.0 0.00 0.23 0.23 89 1014.1